Regional Weather Roundup
Issued by NWS

Home | Current Version | Previous Version | Graphics & Text | Print | Product List | Glossary Off
Versions: 1 2 3 4 5 6 7 8 9 10 11 12 13 14 15 16 17 18 19 20 21 22 23 24 25 26 27 28 29 30 31 32 33 34 35 36 37 38 39 40 41 42 43 44 45 46 47 48 49 50

649
ASUS43 KMKX 301100
RWRWI

WISCONSIN REGIONAL WEATHER ROUNDUP
NATIONAL WEATHER SERVICE MILWAUKEE/SULLIVAN WI
600 AM CDT TUE AUG 30 2016

NOTE: "FAIR" INDICATES FEW OR NO CLOUDS BELOW 12,000 FEET WITH NO
SIGNIFICANT WEATHER AND/OR OBSTRUCTIONS TO VISIBILITY.

WIZ001-002-006>008-014>016-023>028-301200-
NORTHWEST WISCONSIN

CITY           SKY/WX    TMP DP  RH WIND       PRES   REMARKS
SUPERIOR ARPT  CLOUDY    67  64  91 CALM      30.14R
ASHLAND        CLOUDY    63  62  97 CALM      30.11S
HAYWARD        CLOUDY    65  62  90 CALM      30.14S
SIREN          CLOUDY    64  63  96 NW6       30.15S
CUMBERLAND     CLOUDY    64  63  94 NW12      30.14S
RICE LAKE      CLOUDY    65  62  89 NW3       30.14S
CHETEK         NOT AVBL
LADYSMITH      CLOUDY    65  62  89 CALM      30.15R
EAU CLAIRE     NOT AVBL
MENOMONIE      CLOUDY    66  64  91 CALM      30.12R
NEW RICHMOND   CLOUDY    64  64  99 CALM      30.14S
OSCEOLA        CLOUDY    65  65 100 NW3       30.17S
$$

WIZ003>005-009-010-017-018-301200-
NORTH CENTRAL WISCONSIN

CITY           SKY/WX    TMP DP  RH WIND       PRES   REMARKS
MANITOWISH WTR NOT AVBL
ARBOR VITAE    CLOUDY    64  62  94 CALM      30.14S
WOODRUFF       CLOUDY    64  62  94 CALM      30.14S
RHINELANDER    FOG       65  65 100 W3        30.15R VSB 1/2
EAGLE RIVER    MOCLDY    64  64 100 CALM      30.13F FOG
LAND O LAKES   CLOUDY    65  63  92 SW5       30.14F
PHILLIPS       CLOUDY    62  61  96 CALM      30.13F
TOMAHAWK       FOG       64  63  96 CALM      30.14S VSB 1
MEDFORD        CLOUDY    62  62 100 CALM      30.13S
MERRILL        CLOUDY    64  64 100 CALM      30.13F
$$

WIZ029-030-035-036-043>047-301200-
CENTRAL WISCONSIN

CITY           SKY/WX    TMP DP  RH WIND       PRES   REMARKS
WAUSAU         PTCLDY    66  64  93 W6        30.12R
MOSINEE        CLEAR     64  64 100 CALM      30.14R FOG
MARSHFIELD     CLEAR     65  61  87 N7        30.13R
STEVENS POINT  MOCLDY    65  65 100 S5        30.13S FOG
WAUPACA        FOG       67  67  98 CALM      30.12S VSB 1/4
WAUTOMA        CLOUDY    68  68 100 W3        30.13F FOG
WISC RAPIDS    PTCLDY    65  65 100 SW5       30.13F FOG
CAMP DOUGLAS   CLOUDY    66  66 100 CALM      30.13F FOG
$$

WIZ011>013-019>022-031-037>040-048>050-301200-
NORTHEAST WISCONSIN

CITY           SKY/WX    TMP DP  RH WIND       PRES   REMARKS
ANTIGO         FOG       67  67 100 NW5       30.15R VSB 1/2
SHAWANO        CLOUDY    70  68  94 CALM      30.10S FOG
OCONTO         NOT AVBL
STURGEON BAY   PTCLDY    70  69  97 SW5       30.10S
GREEN BAY      PTCLDY    68  68 100 S5        30.10F FOG
MANITOWOC      NOT AVBL
APPLETON       MOCLDY    68  68 100 SW7       30.11S FOG
CLINTONVILLE   CLOUDY    66  66 100 SW5       30.11R FOG
OSHKOSH        CLOUDY    68  67  96 S5        30.12F FOG
$$

WIZ032>034-041-042-053>061-301200-
SOUTHWEST WISCONSIN

CITY           SKY/WX    TMP DP  RH WIND       PRES   REMARKS
LA CROSSE      CLOUDY    71  71 100 CALM      30.13F FOG
SPARTA         FOG       65  65 100 CALM      30.15F VSB<1/4
VIROQUA        CLOUDY    69  69 100 CALM      30.17F VSB 1/4
BOSCOBEL       FOG       71  71 100 CALM      30.15S VSB 1/4
PRAIRIE DU CHI CLOUDY    71  70  96 CALM      30.15S FOG
PLATTEVILLE    CLOUDY    70  70 100 CALM      30.17S
$$

WIZ056-057-062-063-064-067-068-301200-
SOUTH CENTRAL WISCONSIN

CITY           SKY/WX    TMP DP  RH WIND       PRES   REMARKS
REEDSBURG      NOT AVBL
BARABOO/DELLS  CLOUDY    68  66  95 CALM      30.15S FOG
LONE ROCK      NOT AVBL
MINERAL POINT  LGT RAIN  72  72 100 CALM      30.17S VSB 1/4
MADISON        CLOUDY    69  68  96 CALM      30.14S
MIDDLETON      CLOUDY    69  69 100 S3        30.16S
WATERTOWN      CLOUDY    69  69 100 CALM      30.14S
MONROE         CLOUDY    70  68  94 SW5       30.16S
JANESVILLE     CLOUDY    70  68  94 CALM      30.15S FOG
$$

WIZ051-052-058>065-066-070>072-301200-
SOUTHEAST WISCONSIN

CITY           SKY/WX    TMP DP  RH WIND       PRES   REMARKS
MILWAUKEE      CLOUDY    74  67  78 CALM      30.15R
WAUKESHA       CLEAR     66  64  94 CALM      30.16S
MILWAUKEE/TIMM CLOUDY    70  64  83 CALM      30.15S
RACINE         CLOUDY    71  68  90 W3        30.16R
BURLINGTON     PTCLDY    66  65  99 CALM      30.16R
KENOSHA        PTCLDY    70  68  93 CALM      30.16R FOG
FOND DU LAC    PTCLDY    69  68  96 S6        30.13F
SHEBOYGAN      CLOUDY    69  66  90 W6        30.13S
WEST BEND      PTCLDY    68  64  88 CALM      30.14S
JUNEAU           N/A     67  67  98 SW3       30.16R FOG
$$

LSZ147-162-301200-
LAKE SUPERIOR

STATION/POSITION TIME  TEMP    WIND        PRES    WAVE
                       AIR SEA DIR/SP/G            HT/PER
                 (UTC) (F)     (DEG/KT/KT) (MB)    (FT/S)
W MID LAKE BUOY  0950   68 67  280/ 14/ 16 1018.1F   2/ 4
DEVILS ISLAND    1000   67     250/ 12/ 14 1019.5R
PORT WING        1000   69     270/  8/ 11 1020.0S
SAXON HARBOR     1000   68     190/  7/ 10 1019.3
$$

LMZ867-665-643>646-301200-
LAKE MICHIGAN

STATION/POSITION TIME  TEMP    WIND        PRES    WAVE
                       AIR SEA DIR/SP/G            HT/PER
                 (UTC) (F)     (DEG/KT/KT) (MB)    (FT/S)
CHAMBERS ISLAND  1000   72     180/  2/  6 1018.6F
S GREEN BAY BUOY 1000   73 73  200/ 10/ 12 1018.6
N MID LAKE BUOY  0950   71 71  220/ 10/ 12 1018.2F   1/ 4
NORTHPORT PIER   1000   73     170/  2/  4 1018.6F
SISTER BAY       1007   73     150/  6/  7   N/A
KEWAUNEE LAKESHO 1000   68      CALM  /  2 1019.1F
SHEBOYGAN LAKESH 1000   71     260/  5/  6 1019.6F
PORT WASHINGTON  1040   71     280/  4/  6 1020.7F
ATWATER BUOY     1000   69      CALM  /  2   N/A
MILWAUKEE LAKESH 1010   72     160/  2/  3   N/A
S MID LAKE BUOY  0950   75 76  230/  2/  2 1020.1F   0
KENOSHA   LAKESH 1000   72      CALM  /  2 1020.3F
$$

TC  - TEMPERATURE IN CELSIUS
VSB - VISIBILITY IN STATUTE MILES
WCI - WIND CHILL INDEX
HX  - HEAT INDEX





USA.gov is the U.S. government's official web portal to all federal, state and local government web resources and services.